Regional Weather Roundup
Issued by NWS

Home | Current Version | Previous Version | Text Only | Print | Product List | Glossary On
Versions: 1 2 3 4 5 6 7 8 9 10 11 12 13 14 15 16 17 18 19 20 21 22 23 24 25 26 27 28 29 30 31 32 33 34 35 36 37 38 39 40 41 42 43 44 45 46 47 48 49 50
000
ASUS44 KFWD 280615
RWRTX
NORTH TEXAS HOURLY WEATHER ROUNDUP
NATIONAL WEATHER SERVICE FORT WORTH TX
100 AM CDT MON JUL 28 2014

NOTE: "FAIR" INDICATES FEW OR NO CLOUDS BELOW 12,000 FEET WITH NO
SIGNIFICANT WEATHER AND/OR OBSTRUCTIONS TO VISIBILITY.

TXZ118-119-280700-
DALLAS/FORT WORTH METROPLEX

CITY           SKY/WX    TMP DP  RH WIND       PRES   REMARKS
DFW AIRPORT    CLEAR     87  68  52 SW8       30.01S HX  90
6HR MIN TEMP:  87; 6HR MAX TEMP: 100;

DALLAS LOVE    CLEAR     89  68  49 SW5       30.01S HX  93
6HR MIN TEMP:  88; 6HR MAX TEMP:  99;

FTW MEACHAM    CLEAR     87  65  47 S6        30.02S
6HR MIN TEMP:  87; 6HR MAX TEMP: 101;

DAL-EXECUTIVE  CLEAR     87  68  52 S5        30.02S HX  90
6HR MIN TEMP:  87; 6HR MAX TEMP: 100;

FTW-ALLIANCE   PTCLDY    85  64  49 S5        30.02R
6HR MIN TEMP:  85; 6HR MAX TEMP:  99;

FTW-NAS-JRB    CLEAR     88  63  43 S8        30.07R
6HR MIN TEMP:  88; 6HR MAX TEMP: 103;

FTW-SPINKS     CLEAR     83  66  55 CALM      30.05S
6HR MIN TEMP:  83; 6HR MAX TEMP: 100;

ARLINGTON      CLEAR     86  67  52 S7        30.02S
6HR MIN TEMP:  86; 6HR MAX TEMP: 100;

GRAND PRAIRIE  CLEAR     87  66  49 S8        30.03S
6HR MIN TEMP:  87; 6HR MAX TEMP: 100;

ADDISON        CLEAR     89  66  47 CALM      30.04S HX  91
6HR MIN TEMP:  89; 6HR MAX TEMP: 101;

MESQUITE       CLEAR     79  71  76 SE3       30.02S
6HR MIN TEMP:  79; 6HR MAX TEMP:  97;

LANCASTER      CLEAR     83  67  59 S5        30.02F
6HR MIN TEMP:  83; 6HR MAX TEMP:  99;

$$

TXZ091>094-102>105-117-120-121-131>134-280700-
NORTH CENTRAL TEXAS

CITY           SKY/WX    TMP DP  RH WIND       PRES   REMARKS
SHRMAN/DENISON CLEAR     84  70  61 E6        30.05S
6HR MIN TEMP:  83; 6HR MAX TEMP: 100;

GAINESVILLE    CLEAR     85  69  59 CALM      30.06F
6HR MIN TEMP:  85; 6HR MAX TEMP:  96;

BOWIE          CLEAR     81  68  65 CALM      30.06S
6HR MIN TEMP:  80; 6HR MAX TEMP:  96;

BRIDGEPORT     CLEAR     84  62  47 S5        30.06R
6HR MIN TEMP:  84; 6HR MAX TEMP:  99;

DECATUR        CLEAR     86  63  44 S12       30.06R
6HR MIN TEMP:  86; 6HR MAX TEMP:  98;

DENTON         CLEAR     83  67  58 S3        30.02S
6HR MIN TEMP:  83; 6HR MAX TEMP:  99;

MCKINNEY       CLEAR     83  72  69 SE5       30.02S
6HR MIN TEMP:  83; 6HR MAX TEMP:  98;

GREENVILLE     CLEAR     81  70  69 S3        30.02F
ROCKWALL       CLEAR     82  72  71 S3        30.02S
6HR MIN TEMP:  82; 6HR MAX TEMP:  98;

TERRELL        CLEAR     83  74  74 CALM      30.03R
6HR MIN TEMP:  82; 6HR MAX TEMP:  98;

WAXAHACHIE     CLEAR     82  67  59 S7        30.04F
6HR MIN TEMP:  82; 6HR MAX TEMP:  97;

CLEBURNE       CLEAR     82  70  65 S7        30.06S
GRANBURY       CLEAR     86  66  52 E3        30.05S
6HR MIN TEMP:  85; 6HR MAX TEMP: 100;

$$

TXZ083>090-098>101-113>116-127>130-139>142-154-155-280700-
WESTERN NORTH TEXAS

CITY           SKY/WX    TMP DP  RH WIND       PRES   REMARKS
WICHITA FALLS  PTCLDY    86  74  67 E10       30.06R HX  94
6HR MIN TEMP:  86; 6HR MAX TEMP: 100;

WF-KICKAPOO    CLEAR     87  73  61 E9G17     30.07R HX  94
6HR MIN TEMP:  87; 6HR MAX TEMP: 101;

VERNON         CLEAR     85  68  56 NE9       30.09S
ABILENE        CLEAR     83  62  49 S7        30.09R
6HR MIN TEMP:  83; 6HR MAX TEMP:  99;

ABILENE-DYESS  CLEAR     81  64  55 S8        30.08R
6HR MIN TEMP:  81; 6HR MAX TEMP:  98;

BRECKENRIDGE   CLEAR     87  62  42 S8        30.05S
6HR MIN TEMP:  87; 6HR MAX TEMP: 103;

GRAHAM         CLEAR     86  64  47 SE6       30.03S
6HR MIN TEMP:  86; 6HR MAX TEMP: 101;

MINERAL WELLS  CLEAR     83  65  54 SE7       30.03S
6HR MIN TEMP:  83; 6HR MAX TEMP:  99;

STEPHENVILLE   CLEAR     81  64  57 CALM      30.10R
6HR MIN TEMP:  81; 6HR MAX TEMP:  97;

COMANCHE       CLEAR     81  63  54 S5        30.07S
6HR MIN TEMP:  81; 6HR MAX TEMP:  96;

BROWNWOOD      PTCLDY    82  63  51 SE5       30.07R
COLEMAN        CLEAR     81  60  49 CALM      30.08S
6HR MIN TEMP:  80; 6HR MAX TEMP:  98;

BRADY          CLEAR     82  63  51 SE7       30.09R
$$

TXZ143>147-156>162-174-175-280700-
CENTRAL TEXAS

CITY           SKY/WX    TMP DP  RH WIND       PRES   REMARKS
WACO           CLEAR     85  71  63 S13       30.03S HX  90
6HR MIN TEMP:  85; 6HR MAX TEMP:  97;

WACO-MCGREGOR  CLEAR     82  68  61 S10       30.05S
6HR MIN TEMP:  82; 6HR MAX TEMP:  99;

HILLSBORO      CLEAR     85  68  57 S7        30.04S
6HR MIN TEMP:  84; 6HR MAX TEMP:  98;

CORSICANA      CLEAR     82  71  69 S8        30.03S
6HR MIN TEMP:  81; 6HR MAX TEMP:  96;

MEXIA          CLEAR     82  72  72 S6        30.04S
6HR MIN TEMP:  80; 6HR MAX TEMP:  92;

HEARNE         CLEAR    N/A N/A N/A SE5       30.05S
CAMERON        CLEAR     83  73  72 S10       30.05R
6HR MIN TEMP:  83; 6HR MAX TEMP:  96;

TEMPLE         CLEAR     82  68  61 S14       30.05S
6HR MIN TEMP:  82; 6HR MAX TEMP:  95;

KILLEEN        CLEAR     82  68  61 S10       30.06R
KILLEEN-SKYLRK CLEAR     82  66  57 S9        30.06R
6HR MIN TEMP:  82; 6HR MAX TEMP:  97;

FORT HOOD      CLEAR     85  69  58 SE7       30.06R
6HR MIN TEMP:  85; 6HR MAX TEMP:  98;

GATESVILLE     CLEAR     82  70  65 SE6       30.07S
HAMILTON       CLEAR     82  65  57 S9        30.08R
6HR MIN TEMP:  81; 6HR MAX TEMP:  96;

LAMPASAS       CLEAR     82  69  64 S5        30.06R
6HR MIN TEMP:  81; 6HR MAX TEMP:  97;

$$

TXZ095>097-106>112-122>126-135>138-148>153-164>167-280700-
EAST TEXAS

CITY           SKY/WX    TMP DP  RH WIND       PRES   REMARKS
PARIS          PTCLDY    82  72  69 CALM      30.05R
6HR MIN TEMP:  82; 6HR MAX TEMP:  93;

SULPHUR SPRNGS CLEAR     83  73  71 CALM      30.05R
6HR MIN TEMP:  83; 6HR MAX TEMP:  95;

CLARKSVILLE    MOCLDY    83  74  74 CALM      30.04S
6HR MIN TEMP:  82; 6HR MAX TEMP:  94;

MOUNT PLEASANT PTCLDY    80  73  80 CALM      30.04S
6HR MIN TEMP:  79; 6HR MAX TEMP:  94;

GILMER         CLEAR     81  73  78 S3        30.04S
MINEOLA        CLEAR     82  73  74 S3        30.03S
TYLER          CLEAR     80  73  79 S3        30.03S
6HR MIN TEMP:  80; 6HR MAX TEMP:  93;

LONGVIEW       CLEAR     79  72  79 CALM      30.02S
6HR MIN TEMP:  78; 6HR MAX TEMP:  92;

MARSHALL       CLEAR     78  75  90 CALM      30.05R
6HR MIN TEMP:  78; 6HR MAX TEMP:  94;

ATHENS         CLEAR     75  72  88 CALM      30.02S
JACKSONVILLE   CLEAR     80  73  80 S6        30.06S
HENDERSON      CLEAR     78  73  86 CALM      30.04S
6HR MIN TEMP:  77; 6HR MAX TEMP:  91;

NACOGDOCHES    CLEAR     79  75  89 SW5       30.05S
6HR MIN TEMP:  75; 6HR MAX TEMP:  91;

LUFKIN         CLEAR     82  76  81 S6        30.04S
6HR MIN TEMP:  82; 6HR MAX TEMP:  95;

$$

SUPPLEMENTAL OBSERVATIONS (CENTRAL)

CITY           SKY/WX    TMP DP  RH WIND       PRES   REMARKS
LAKE TEXOMA      N/A     84  72  65 E3          N/A
CADDO GRASSLND   N/A     81  73  78 CALM        N/A
PAT MAYSE LAKE   N/A     84  73  70 NE2         N/A  HX  91
ATHENS           N/A     82  72  69 S5          N/A
LAKE LIMESTONE   N/A     81  75  83 S6          N/A
MCGREGOR         N/A     84  70  61 S12         N/A
$$

SUPPLEMENTAL OBSERVATIONS (WEST)




USA.gov is the U.S. government's official web portal to all federal, state and local government web resources and services.